Time,TemperatureF,DewpointF,PressureIn,WindDirection,WindDirectionDegrees,WindSpeedMPH,WindSpeedGustMPH,Humidity,HourlyPrecipIn,Conditions,Clouds,dailyrainin,SoftwareType,DateUTC
2013-07-19 04:46:00,76.4,72.6,29.91,SW,217,0.0,0.0,88,0.00,,,0.00,VWS V14.01,2013-07-19 08:46:00,
2013-07-19 04:52:00,76.4,72.6,29.91,West,266,0.0,0.0,88,0.00,,,0.00,VWS V14.01,2013-07-19 08:52:00,
2013-07-19 04:58:00,76.4,72.6,29.91,WSW,240,0.0,0.0,88,0.00,,,0.00,VWS V14.01,2013-07-19 08:58:00,
2013-07-19 05:03:00,76.3,72.5,29.91,SSW,203,0.0,0.0,88,0.00,,,0.00,VWS V14.01,2013-07-19 09:03:00,
2013-07-19 05:09:00,76.2,73.0,29.91,SE,129,0.0,1.0,88,0.00,,,0.00,weatherlink.com 1.10,2013-07-19 09:09:00,
2013-07-19 05:14:00,76.1,72.3,29.91,SE,145,0.0,0.0,88,0.00,,,0.00,VWS V14.01,2013-07-19 09:14:00,
2013-07-19 05:19:00,76.1,72.6,29.92,WSW,237,0.0,1.0,89,0.00,,,0.00,VWS V14.01,2013-07-19 09:19:00,
2013-07-19 05:27:00,76.0,72.5,29.92,SSE,155,0.0,0.0,89,0.00,,,0.00,VWS V14.01,2013-07-19 09:27:00,
2013-07-19 05:30:00,76.0,72.5,29.92,SSE,155,0.0,0.0,89,0.00,,,0.00,VWS V14.01,2013-07-19 09:30:00,
2013-07-19 05:32:00,76.1,72.3,29.92,West,278,0.0,1.0,88,0.00,,,0.00,VWS V14.01,2013-07-19 09:32:00,
2013-07-19 05:39:00,76.1,73.0,29.92,SSE,168,2.0,3.0,89,0.00,,,0.00,weatherlink.com 1.10,2013-07-19 09:39:00,
2013-07-19 05:46:00,76.2,72.4,29.92,South,188,0.0,0.0,88,0.00,,,0.00,VWS V14.01,2013-07-19 09:46:00,
2013-07-19 05:51:00,76.4,72.6,29.92,SSW,204,0.0,1.0,88,0.00,,,0.00,VWS V14.01,2013-07-19 09:51:00,
2013-07-19 05:59:00,76.4,72.6,29.92,WSW,253,1.0,1.0,88,0.00,,,0.00,VWS V14.01,2013-07-19 09:59:00,
2013-07-19 06:04:00,76.3,72.5,29.92,West,264,1.0,2.0,88,0.00,,,0.00,VWS V14.01,2013-07-19 10:04:00,
2013-07-19 06:09:00,76.3,72.5,29.92,SW,221,0.0,5.0,88,0.00,,,0.00,VWS V14.01,2013-07-19 10:09:00,
2013-07-19 06:14:00,76.2,72.4,29.92,SSW,210,4.0,5.0,88,0.00,,,0.00,VWS V14.01,2013-07-19 10:14:00,
2013-07-19 06:19:00,76.2,72.7,29.92,WSW,243,0.0,5.0,89,0.00,,,0.00,VWS V14.01,2013-07-19 10:19:00,
2013-07-19 06:24:00,76.1,72.6,29.92,ESE,121,0.0,5.0,89,0.00,,,0.00,VWS V14.01,2013-07-19 10:24:00,
2013-07-19 06:29:00,76.0,72.5,29.92,SSE,167,0.0,2.0,89,0.00,,,0.00,VWS V14.01,2013-07-19 10:29:00,
2013-07-19 06:30:00,76.0,72.5,29.92,West,280,2.0,5.0,89,0.00,,,0.00,VWS V14.01,2013-07-19 10:30:00,
2013-07-19 06:34:00,76.0,72.5,29.92,SSE,152,1.0,5.0,89,0.00,,,0.00,VWS V14.01,2013-07-19 10:34:00,
2013-07-19 06:39:00,75.9,72.4,29.92,SSW,212,1.0,5.0,89,0.00,,,0.00,VWS V14.01,2013-07-19 10:39:00,
2013-07-19 06:47:00,75.8,73.0,29.92,SSW,205,0.0,3.0,90,0.00,,,0.00,weatherlink.com 1.10,2013-07-19 10:47:00,
2013-07-19 06:52:00,75.8,72.7,29.92,SSE,158,3.0,3.0,90,0.00,,,0.00,VWS V14.01,2013-07-19 10:52:00,
2013-07-19 06:57:00,75.8,72.7,29.92,SSE,150,2.0,2.0,90,0.00,,,0.00,VWS V14.01,2013-07-19 10:57:00,
2013-07-19 07:00:00,75.8,72.7,29.92,SSW,195,0.0,4.0,90,0.00,,,0.00,VWS V14.01,2013-07-19 11:00:00,
2013-07-19 07:02:00,75.8,72.7,29.92,SSE,165,3.0,3.0,90,0.00,,,0.00,VWS V14.01,2013-07-19 11:02:00,
2013-07-19 07:07:00,75.9,72.8,29.92,SW,218,0.0,3.0,90,0.00,,,0.00,VWS V14.01,2013-07-19 11:07:00,
2013-07-19 07:12:00,75.9,72.8,29.92,SSW,208,0.0,3.0,90,0.00,,,0.00,VWS V14.01,2013-07-19 11:12:00,
2013-07-19 07:17:00,75.9,72.8,29.92,SW,218,0.0,4.0,90,0.00,,,0.00,VWS V14.01,2013-07-19 11:17:00,
2013-07-19 07:22:00,76.0,72.9,29.92,ESE,122,2.0,4.0,90,0.00,,,0.00,VWS V14.01,2013-07-19 11:22:00,
2013-07-19 07:30:00,76.2,73.1,29.92,SSE,148,1.0,1.0,90,0.00,,,0.00,VWS V14.01,2013-07-19 11:30:00,
2013-07-19 07:37:00,76.4,73.0,29.92,SW,229,2.0,5.0,90,0.00,,,0.00,weatherlink.com 1.10,2013-07-19 11:37:00,
2013-07-19 07:42:00,76.5,73.3,29.92,SSW,212,2.0,3.0,90,0.00,,,0.00,VWS V14.01,2013-07-19 11:42:00,
2013-07-19 07:47:00,76.7,73.6,29.92,SSE,158,0.0,3.0,90,0.00,,,0.00,VWS V14.01,2013-07-19 11:47:00,
2013-07-19 07:52:00,76.9,73.8,29.92,SW,215,1.0,4.0,90,0.00,,,0.00,VWS V14.01,2013-07-19 11:52:00,
2013-07-19 07:57:00,77.1,73.6,29.92,West,262,0.0,0.0,89,0.00,,,0.00,VWS V14.01,2013-07-19 11:57:00,
2013-07-19 08:00:00,77.0,73.5,29.92,WNW,283,0.0,4.0,89,0.00,,,0.00,VWS V14.01,2013-07-19 12:00:00,
2013-07-19 08:02:00,77.3,73.8,29.92,West,281,1.0,4.0,89,0.00,,,0.00,VWS V14.01,2013-07-19 12:02:00,
2013-07-19 08:07:00,77.6,73.8,29.92,SSW,205,3.0,5.0,88,0.00,,,0.00,VWS V14.01,2013-07-19 12:07:00,
2013-07-19 08:12:00,77.8,74.0,29.92,NW,325,1.0,6.0,88,0.00,,,0.00,VWS V14.01,2013-07-19 12:12:00,
2013-07-19 08:17:00,78.0,74.2,29.92,South,176,0.0,9.0,88,0.00,,,0.00,VWS V14.01,2013-07-19 12:17:00,
2013-07-19 08:22:00,78.2,74.4,29.92,SSW,203,3.0,9.0,88,0.00,,,0.00,VWS V14.01,2013-07-19 12:22:00,
2013-07-19 08:27:00,78.5,74.7,29.92,SW,232,2.0,5.0,88,0.00,,,0.00,VWS V14.01,2013-07-19 12:27:00,
2013-07-19 08:30:00,78.4,74.6,29.92,SSW,210,0.0,9.0,88,0.00,,,0.00,VWS V14.01,2013-07-19 12:30:00,
2013-07-19 08:32:00,78.7,74.5,29.92,SSW,197,3.0,5.0,87,0.00,,,0.00,VWS V14.01,2013-07-19 12:32:00,
2013-07-19 08:37:00,78.9,74.7,29.92,WSW,248,4.0,5.0,87,0.00,,,0.00,VWS V14.01,2013-07-19 12:37:00,
2013-07-19 08:42:00,79.2,75.0,29.92,SSE,165,2.0,5.0,87,0.00,,,0.00,VWS V14.01,2013-07-19 12:42:00,
2013-07-19 08:47:00,79.5,75.3,29.92,NW,308,0.0,5.0,87,0.00,,,0.00,VWS V14.01,2013-07-19 12:47:00,
2013-07-19 08:53:00,79.7,75.2,29.92,SSW,198,1.0,1.0,86,0.00,,,0.00,VWS V14.01,2013-07-19 12:53:00,
2013-07-19 08:58:00,80.1,75.2,29.92,SSE,159,3.0,4.0,85,0.00,,,0.00,VWS V14.01,2013-07-19 12:58:00,
2013-07-19 09:00:00,79.9,75.0,29.92,SSW,212,2.0,6.0,85,0.00,,,0.00,VWS V14.01,2013-07-19 13:00:00,
2013-07-19 09:06:00,80.6,75.3,29.92,SSW,212,6.0,6.0,84,0.00,,,0.00,VWS V14.01,2013-07-19 13:06:00,
2013-07-19 09:11:00,80.8,75.2,29.92,SW,229,1.0,4.0,83,0.00,,,0.00,VWS V14.01,2013-07-19 13:11:00,
2013-07-19 09:16:00,81.4,75.7,29.93,West,260,0.0,6.0,83,0.00,,,0.00,VWS V14.01,2013-07-19 13:16:00,
2013-07-19 09:21:00,81.8,75.4,29.92,WNW,290,3.0,9.0,81,0.00,,,0.00,VWS V14.01,2013-07-19 13:21:00,
2013-07-19 09:28:00,82.1,75.3,29.93,SSE,167,0.0,0.0,80,0.00,,,0.00,VWS V14.01,2013-07-19 13:28:00,
2013-07-19 09:33:00,82.6,75.4,29.93,SE,145,1.0,7.0,79,0.00,,,0.00,VWS V14.01,2013-07-19 13:33:00,
2013-07-19 09:38:00,83.1,75.9,29.93,NW,316,1.0,7.0,79,0.00,,,0.00,VWS V14.01,2013-07-19 13:38:00,
2013-07-19 09:43:00,83.5,76.3,29.93,South,180,6.0,6.0,79,0.00,,,0.00,VWS V14.01,2013-07-19 13:43:00,
2013-07-19 09:48:00,83.7,75.7,29.93,SW,229,1.0,7.0,77,0.00,,,0.00,VWS V14.01,2013-07-19 13:48:00,
2013-07-19 09:53:00,83.9,76.3,29.93,SW,224,1.0,3.0,78,0.00,,,0.00,VWS V14.01,2013-07-19 13:53:00,
2013-07-19 09:58:00,84.4,76.4,29.93,ESE,105,0.0,5.0,77,0.00,,,0.00,VWS V14.01,2013-07-19 13:58:00,
2013-07-19 10:00:00,84.2,76.2,29.92,SSW,203,0.0,4.0,77,0.00,,,0.00,VWS V14.01,2013-07-19 14:00:00,
2013-07-19 10:03:00,84.7,76.3,29.93,South,184,0.0,6.0,76,0.00,,,0.00,VWS V14.01,2013-07-19 14:03:00,
2013-07-19 10:08:00,85.2,76.4,29.93,South,184,1.0,6.0,75,0.00,,,0.00,VWS V14.01,2013-07-19 14:08:00,
2013-07-19 10:13:00,85.7,76.1,29.93,South,172,5.0,8.0,73,0.00,,,0.00,VWS V14.01,2013-07-19 14:13:00,
2013-07-19 10:18:00,85.8,76.2,29.93,South,190,2.0,8.0,73,0.00,,,0.00,VWS V14.01,2013-07-19 14:18:00,
2013-07-19 10:23:00,86.2,76.5,29.93,SSW,204,4.0,8.0,73,0.00,,,0.00,VWS V14.01,2013-07-19 14:23:00,
2013-07-19 10:30:00,86.4,76.3,29.92,SSW,200,0.0,8.0,72,0.00,,,0.00,VWS V14.01,2013-07-19 14:30:00,
2013-07-19 10:31:00,86.8,76.3,29.92,ESE,102,0.0,0.0,71,0.00,,,0.00,VWS V14.01,2013-07-19 14:31:00,
2013-07-19 10:36:00,87.4,76.8,29.92,WSW,250,1.0,8.0,71,0.00,,,0.00,VWS V14.01,2013-07-19 14:36:00,
2013-07-19 10:44:00,87.3,76.3,29.92,WSW,255,6.0,6.0,70,0.00,,,0.00,VWS V14.01,2013-07-19 14:44:00,
2013-07-19 10:49:00,87.5,76.1,29.93,NNE,27,1.0,3.0,69,0.00,,,0.00,VWS V14.01,2013-07-19 14:49:00,
2013-07-19 10:54:00,87.7,76.7,29.93,West,280,1.0,5.0,70,0.00,,,0.00,VWS V14.01,2013-07-19 14:54:00,
2013-07-19 11:00:00,88.0,76.6,29.92,ESE,120,3.0,3.0,69,0.00,,,0.00,VWS V14.01,2013-07-19 15:00:00,
2013-07-19 11:05:00,88.6,76.7,29.92,SE,139,0.0,5.0,68,0.00,,,0.00,VWS V14.01,2013-07-19 15:05:00,
2013-07-19 11:10:00,88.7,76.3,29.92,SSW,196,3.0,3.0,67,0.00,,,0.00,VWS V14.01,2013-07-19 15:10:00,
2013-07-19 11:15:00,89.0,76.2,29.92,NNW,342,2.0,9.0,66,0.00,,,0.00,VWS V14.01,2013-07-19 15:15:00,
2013-07-19 11:20:00,88.7,75.9,29.93,SW,226,0.0,3.0,66,0.00,,,0.00,VWS V14.01,2013-07-19 15:20:00,
2013-07-19 11:25:00,88.8,76.0,29.92,West,266,3.0,7.0,66,0.00,,,0.00,VWS V14.01,2013-07-19 15:25:00,
2013-07-19 11:30:00,89.1,76.3,29.92,WNW,282,4.0,10.0,66,0.00,,,0.00,VWS V14.01,2013-07-19 15:30:00,
2013-07-19 11:35:00,89.2,75.9,29.92,NNW,339,2.0,10.0,65,0.00,,,0.00,VWS V14.01,2013-07-19 15:35:00,
2013-07-19 11:40:00,89.3,76.0,29.92,NW,321,1.0,10.0,65,0.00,,,0.00,VWS V14.01,2013-07-19 15:40:00,
2013-07-19 11:45:00,89.3,76.0,29.92,South,174,3.0,10.0,65,0.00,,,0.00,VWS V14.01,2013-07-19 15:45:00,
2013-07-19 11:50:00,89.3,76.9,29.92,NW,316,0.0,10.0,67,0.00,,,0.00,VWS V14.01,2013-07-19 15:50:00,
2013-07-19 11:58:00,90.1,76.8,29.92,East,92,2.0,2.0,65,0.00,,,0.00,VWS V14.01,2013-07-19 15:58:00,
2013-07-19 12:03:00,89.6,76.3,29.92,SE,133,3.0,8.0,65,0.00,,,0.00,VWS V14.01,2013-07-19 16:03:00,
2013-07-19 12:08:00,89.9,76.1,29.92,SW,215,5.0,5.0,64,0.00,,,0.00,VWS V14.01,2013-07-19 16:08:00,
2013-07-19 12:13:00,90.2,75.4,29.91,WNW,283,1.0,3.0,62,0.00,,,0.00,VWS V14.01,2013-07-19 16:13:00,
2013-07-19 12:18:00,90.8,77.4,29.91,ESE,111,0.0,4.0,65,0.00,,,0.00,VWS V14.01,2013-07-19 16:18:00,
2013-07-19 12:23:00,91.3,76.5,29.91,South,187,11.0,11.0,62,0.00,,,0.00,VWS V14.01,2013-07-19 16:23:00,
2013-07-19 12:28:00,91.1,75.8,29.91,WNW,302,3.0,8.0,61,0.00,,,0.00,VWS V14.01,2013-07-19 16:28:00,
2013-07-19 12:30:00,91.2,75.9,29.91,SE,139,5.0,11.0,61,0.00,,,0.00,VWS V14.01,2013-07-19 16:30:00,
2013-07-19 12:33:00,90.8,75.5,29.91,WNW,297,3.0,10.0,61,0.00,,,0.00,VWS V14.01,2013-07-19 16:33:00,
2013-07-19 12:38:00,90.3,75.0,29.91,West,260,1.0,10.0,61,0.00,,,0.00,VWS V14.01,2013-07-19 16:38:00,
2013-07-19 12:46:00,90.5,76.2,29.91,ENE,65,1.0,1.0,63,0.00,,,0.00,VWS V14.01,2013-07-19 16:46:00,
2013-07-19 12:51:00,90.0,75.2,29.91,West,278,1.0,9.0,62,0.00,,,0.00,VWS V14.01,2013-07-19 16:51:00,
2013-07-19 12:56:00,90.3,76.0,29.91,SSW,201,1.0,2.0,63,0.00,,,0.00,VWS V14.01,2013-07-19 16:56:00,
2013-07-19 13:00:00,90.2,75.4,29.90,WNW,296,2.0,9.0,62,0.00,,,0.00,VWS V14.01,2013-07-19 17:00:00,
2013-07-19 13:01:00,90.5,75.7,29.90,West,277,1.0,8.0,62,0.00,,,0.00,VWS V14.01,2013-07-19 17:01:00,
2013-07-19 13:06:00,90.6,75.8,29.90,ENE,70,1.0,8.0,62,0.00,,,0.00,VWS V14.01,2013-07-19 17:06:00,
2013-07-19 13:11:00,91.0,76.2,29.90,SW,226,3.0,9.0,62,0.00,,,0.00,VWS V14.01,2013-07-19 17:11:00,
2013-07-19 13:17:00,91.3,75.0,29.90,West,281,10.0,10.0,59,0.00,,,0.00,VWS V14.01,2013-07-19 17:17:00,
2013-07-19 13:22:00,91.3,75.5,29.89,West,259,3.0,12.0,60,0.00,,,0.00,VWS V14.01,2013-07-19 17:22:00,
2013-07-19 13:27:00,91.7,73.8,29.89,West,276,4.0,7.0,56,0.00,,,0.00,VWS V14.01,2013-07-19 17:27:00,
2013-07-19 13:30:00,91.7,74.3,29.89,WNW,287,3.0,12.0,57,0.00,,,0.00,VWS V14.01,2013-07-19 17:30:00,
2013-07-19 13:32:00,91.7,75.3,29.89,SSW,194,4.0,7.0,59,0.00,,,0.00,VWS V14.01,2013-07-19 17:32:00,
2013-07-19 13:37:00,91.8,74.9,29.88,West,278,3.0,7.0,58,0.00,,,0.00,VWS V14.01,2013-07-19 17:37:00,
2013-07-19 13:42:00,91.6,74.7,29.88,West,278,3.0,7.0,58,0.00,,,0.00,VWS V14.01,2013-07-19 17:42:00,
2013-07-19 13:47:00,91.7,75.3,29.88,North,349,2.0,7.0,59,0.00,,,0.00,VWS V14.01,2013-07-19 17:47:00,
2013-07-19 13:52:00,92.2,75.3,29.88,SW,225,7.0,8.0,58,0.00,,,0.00,VWS V14.01,2013-07-19 17:52:00,
2013-07-19 13:57:00,92.3,75.4,29.88,SSE,155,2.0,4.0,58,0.00,,,0.00,VWS V14.01,2013-07-19 17:57:00,
2013-07-19 14:00:00,92.3,75.4,29.88,West,281,3.0,15.0,58,0.00,,,0.00,VWS V14.01,2013-07-19 18:00:00,
2013-07-19 14:02:00,92.6,75.7,29.88,ESE,114,4.0,7.0,58,0.00,,,0.00,VWS V14.01,2013-07-19 18:02:00,
2013-07-19 14:08:00,92.8,75.9,29.87,North,358,3.0,3.0,58,0.00,,,0.00,VWS V14.01,2013-07-19 18:08:00,
2013-07-19 14:13:00,92.8,76.4,29.87,NE,51,2.0,4.0,59,0.00,,,0.00,VWS V14.01,2013-07-19 18:13:00,
2013-07-19 14:18:00,93.2,75.2,29.87,West,266,2.0,11.0,56,0.00,,,0.00,VWS V14.01,2013-07-19 18:18:00,
2013-07-19 14:23:00,93.2,75.7,29.87,SW,218,4.0,11.0,57,0.00,,,0.00,VWS V14.01,2013-07-19 18:23:00,
2013-07-19 14:28:00,93.5,76.0,29.86,WNW,287,1.0,3.0,57,0.00,,,0.00,VWS V14.01,2013-07-19 18:28:00,
2013-07-19 14:30:00,93.4,75.9,29.87,SE,125,1.0,11.0,57,0.00,,,0.00,VWS V14.01,2013-07-19 18:30:00,
2013-07-19 14:35:00,93.4,75.4,29.86,South,177,4.0,4.0,56,0.00,,,0.00,VWS V14.01,2013-07-19 18:35:00,
2013-07-19 14:40:00,93.6,75.0,29.86,South,171,1.0,9.0,55,0.00,,,0.00,VWS V14.01,2013-07-19 18:40:00,
2013-07-19 14:45:00,93.2,74.6,29.86,SW,231,5.0,9.0,55,0.00,,,0.00,VWS V14.01,2013-07-19 18:45:00,
2013-07-19 14:50:00,92.8,74.8,29.85,SW,225,6.0,10.0,56,0.00,,,0.00,VWS V14.01,2013-07-19 18:50:00,
2013-07-19 14:55:00,92.7,75.2,29.85,West,280,2.0,10.0,57,0.00,,,0.00,VWS V14.01,2013-07-19 18:55:00,
2013-07-19 15:00:00,92.8,74.3,29.85,SW,229,5.0,7.0,55,0.00,,,0.00,VWS V14.01,2013-07-19 19:00:00,
2013-07-19 15:05:00,92.8,74.8,29.85,SSE,166,10.0,10.0,56,0.00,,,0.00,VWS V14.01,2013-07-19 19:05:00,
2013-07-19 15:10:00,93.0,75.5,29.85,NW,321,2.0,10.0,57,0.00,,,0.00,VWS V14.01,2013-07-19 19:10:00,
2013-07-19 15:16:00,93.2,75.2,29.85,SSE,150,5.0,5.0,56,0.00,,,0.00,VWS V14.01,2013-07-19 19:16:00,
2013-07-19 15:21:00,93.2,74.6,29.84,West,278,6.0,10.0,55,0.00,,,0.00,VWS V14.01,2013-07-19 19:21:00,
2013-07-19 15:27:00,92.9,74.0,29.84,SW,233,4.0,13.0,55,0.00,,,0.00,weatherlink.com 1.10,2013-07-19 19:27:00,
2013-07-19 15:33:00,93.3,75.3,29.83,WNW,284,2.0,2.0,56,0.00,,,0.00,VWS V14.01,2013-07-19 19:33:00,
2013-07-19 15:39:00,93.2,75.2,29.83,SSE,150,6.0,6.0,56,0.00,,,0.00,VWS V14.01,2013-07-19 19:39:00,
2013-07-19 15:45:00,93.3,75.0,29.83,WSW,246,8.0,10.0,55,0.00,,,0.00,weatherlink.com 1.10,2013-07-19 19:45:00,
2013-07-19 15:51:00,93.2,74.6,29.83,SSE,153,6.0,6.0,55,0.00,,,0.00,VWS V14.01,2013-07-19 19:51:00,
2013-07-19 15:56:00,93.6,75.0,29.82,SSE,160,2.0,3.0,55,0.00,,,0.00,VWS V14.01,2013-07-19 19:56:00,
2013-07-19 16:00:00,93.6,75.0,29.82,WSW,243,3.0,3.0,55,0.00,,,0.00,VWS V14.01,2013-07-19 20:00:00,
2013-07-19 16:01:00,93.4,75.4,29.82,WSW,250,7.0,7.0,56,0.00,,,0.00,VWS V14.01,2013-07-19 20:01:00,
2013-07-19 16:06:00,93.6,75.6,29.82,SW,229,0.0,7.0,56,0.00,,,0.00,VWS V14.01,2013-07-19 20:06:00,
2013-07-19 16:11:00,93.8,75.2,29.82,South,177,1.0,8.0,55,0.00,,,0.00,VWS V14.01,2013-07-19 20:11:00,
2013-07-19 16:16:00,93.3,74.7,29.82,NNW,343,2.0,10.0,55,0.00,,,0.00,VWS V14.01,2013-07-19 20:16:00,
2013-07-19 16:21:00,93.6,76.6,29.82,NW,310,3.0,10.0,58,0.00,,,0.00,VWS V14.01,2013-07-19 20:21:00,
2013-07-19 16:26:00,93.8,75.2,29.81,SW,222,9.0,9.0,55,0.00,,,0.00,VWS V14.01,2013-07-19 20:26:00,
2013-07-19 16:30:00,93.8,75.7,29.82,SE,141,3.0,10.0,56,0.00,,,0.00,VWS V14.01,2013-07-19 20:30:00,
2013-07-19 16:34:00,93.5,75.0,29.82,WSW,257,5.0,9.0,56,0.00,,,0.00,weatherlink.com 1.10,2013-07-19 20:34:00,
2013-07-19 16:39:00,93.5,75.5,29.81,ESE,120,1.0,7.0,56,0.00,,,0.00,VWS V14.01,2013-07-19 20:39:00,
2013-07-19 16:44:00,94.0,75.4,29.81,South,170,3.0,7.0,55,0.00,,,0.00,VWS V14.01,2013-07-19 20:44:00,
2013-07-19 16:50:00,93.2,75.0,29.81,NE,49,3.0,11.0,55,0.00,,,0.00,weatherlink.com 1.10,2013-07-19 20:50:00,
2013-07-19 16:55:00,92.8,74.8,29.81,West,260,4.0,8.0,56,0.00,,,0.00,VWS V14.01,2013-07-19 20:55:00,
2013-07-19 17:00:00,92.9,74.9,29.81,WSW,256,2.0,6.0,56,0.00,,,0.00,VWS V14.01,2013-07-19 21:00:00,
2013-07-19 17:05:00,93.1,74.6,29.80,West,277,3.0,7.0,55,0.00,,,0.00,VWS V14.01,2013-07-19 21:05:00,
2013-07-19 17:10:00,93.1,74.6,29.80,SW,224,2.0,7.0,55,0.00,,,0.00,VWS V14.01,2013-07-19 21:10:00,
2013-07-19 17:15:00,92.9,75.4,29.80,SE,136,1.0,1.0,57,0.00,,,0.00,VWS V14.01,2013-07-19 21:15:00,
2013-07-19 17:20:00,93.3,75.3,29.80,SSW,210,4.0,7.0,56,0.00,,,0.00,VWS V14.01,2013-07-19 21:20:00,
2013-07-19 17:25:00,93.4,74.8,29.80,SE,136,1.0,7.0,55,0.00,,,0.00,VWS V14.01,2013-07-19 21:25:00,
2013-07-19 17:30:00,93.5,74.9,29.80,NNW,335,2.0,11.0,55,0.00,,,0.00,VWS V14.01,2013-07-19 21:30:00,
2013-07-19 17:35:00,92.9,74.9,29.80,WNW,288,1.0,11.0,56,0.00,,,0.00,VWS V14.01,2013-07-19 21:35:00,
2013-07-19 17:40:00,92.4,75.0,29.80,SSW,210,3.0,11.0,57,0.00,,,0.00,VWS V14.01,2013-07-19 21:40:00,
2013-07-19 17:45:00,92.4,75.0,29.80,SW,228,4.0,11.0,57,0.00,,,0.00,VWS V14.01,2013-07-19 21:45:00,
2013-07-19 17:50:00,92.0,75.1,29.80,ESE,122,3.0,3.0,58,0.00,,,0.00,VWS V14.01,2013-07-19 21:50:00,
2013-07-19 17:55:00,92.2,75.3,29.79,WNW,286,1.0,2.0,58,0.00,,,0.00,VWS V14.01,2013-07-19 21:55:00,
2013-07-19 18:02:00,92.7,75.2,29.79,WNW,301,1.0,1.0,57,0.00,,,0.00,VWS V14.01,2013-07-19 22:02:00,
2013-07-19 18:07:00,93.0,76.1,29.79,West,269,0.0,1.0,58,0.00,,,0.00,VWS V14.01,2013-07-19 22:07:00,
2013-07-19 18:12:00,93.4,76.4,29.79,WNW,293,1.0,5.0,58,0.00,,,0.00,VWS V14.01,2013-07-19 22:12:00,
2013-07-19 18:17:00,93.0,75.5,29.79,West,266,2.0,6.0,57,0.00,,,0.00,VWS V14.01,2013-07-19 22:17:00,
2013-07-19 18:22:00,92.9,75.9,29.79,NW,315,2.0,9.0,58,0.00,,,0.00,VWS V14.01,2013-07-19 22:22:00,
2013-07-19 18:27:00,92.3,74.9,29.79,SSW,201,1.0,6.0,57,0.00,,,0.00,VWS V14.01,2013-07-19 22:27:00,
2013-07-19 18:30:00,92.5,75.6,29.78,WSW,244,6.0,10.0,58,0.00,,,0.00,VWS V14.01,2013-07-19 22:30:00,
2013-07-19 18:36:00,92.2,76.0,29.79,WNW,283,0.0,9.0,59,0.00,,,0.00,weatherlink.com 1.10,2013-07-19 22:36:00,
2013-07-19 18:41:00,92.0,75.6,29.78,WNW,285,3.0,8.0,59,0.00,,,0.00,VWS V14.01,2013-07-19 22:41:00,
2013-07-19 18:46:00,91.8,75.0,29.78,SSW,199,3.0,8.0,59,0.00,,,0.00,weatherlink.com 1.10,2013-07-19 22:46:00,
2013-07-19 19:01:00,90.7,75.0,29.78,West,278,2.0,9.0,60,0.00,,,0.00,weatherlink.com 1.10,2013-07-19 23:01:00,
2013-07-19 19:16:00,89.5,75.0,29.78,South,184,1.0,7.0,62,0.00,,,0.00,weatherlink.com 1.10,2013-07-19 23:16:00,
2013-07-19 19:32:00,89.1,75.0,29.78,SSW,195,2.0,7.0,64,0.00,,,0.00,weatherlink.com 1.10,2013-07-19 23:32:00,
2013-07-19 19:47:00,88.4,75.0,29.79,SSW,210,2.0,8.0,65,0.00,,,0.00,weatherlink.com 1.10,2013-07-19 23:47:00,
2013-07-19 20:02:00,87.6,75.0,29.78,SW,235,0.0,7.0,66,0.00,,,0.00,weatherlink.com 1.10,2013-07-20 00:02:00,
2013-07-19 20:17:00,86.9,75.0,29.79,WNW,285,3.0,7.0,67,0.00,,,0.00,weatherlink.com 1.10,2013-07-20 00:17:00,
2013-07-19 20:34:00,86.1,74.0,29.79,WSW,239,1.0,6.0,68,0.00,,,0.00,weatherlink.com 1.10,2013-07-20 00:34:00,
2013-07-19 20:39:00,85.9,74.6,29.79,South,188,0.0,9.0,69,0.00,,,0.00,VWS V14.01,2013-07-20 00:39:00,
2013-07-19 20:44:00,85.7,74.4,29.79,WNW,302,3.0,9.0,69,0.00,,,0.00,VWS V14.01,2013-07-20 00:44:00,
2013-07-19 20:49:00,85.5,74.2,29.79,South,189,7.0,9.0,69,0.00,,,0.00,VWS V14.01,2013-07-20 00:49:00,
2013-07-19 20:54:00,85.3,74.0,29.79,SSW,194,3.0,9.0,69,0.00,,,0.00,VWS V14.01,2013-07-20 00:54:00,
2013-07-19 20:59:00,85.0,74.1,29.79,South,184,0.0,10.0,70,0.00,,,0.00,VWS V14.01,2013-07-20 00:59:00,
2013-07-19 21:00:00,85.2,73.9,29.80,SSW,210,5.0,9.0,69,0.00,,,0.00,VWS V14.01,2013-07-20 01:00:00,
2013-07-19 21:04:00,84.8,73.9,29.80,South,173,2.0,10.0,70,0.00,,,0.00,VWS V14.01,2013-07-20 01:04:00,
2013-07-19 21:09:00,84.5,73.7,29.79,SE,131,2.0,10.0,70,0.00,,,0.00,VWS V14.01,2013-07-20 01:09:00,
2013-07-19 21:14:00,84.3,73.9,29.79,SW,235,7.0,10.0,71,0.00,,,0.00,VWS V14.01,2013-07-20 01:14:00,
2013-07-19 21:19:00,84.1,73.7,29.79,SW,221,8.0,10.0,71,0.00,,,0.00,VWS V14.01,2013-07-20 01:19:00,
2013-07-19 21:24:00,83.9,73.5,29.79,SW,225,0.0,10.0,71,0.00,,,0.00,VWS V14.01,2013-07-20 01:24:00,
2013-07-19 21:29:00,83.7,73.3,29.79,SSW,207,0.0,7.0,71,0.00,,,0.00,VWS V14.01,2013-07-20 01:29:00,
2013-07-19 21:30:00,83.9,73.5,29.79,SW,218,3.0,10.0,71,0.00,,,0.00,VWS V14.01,2013-07-20 01:30:00,
2013-07-19 21:34:00,83.6,73.2,29.79,South,183,1.0,7.0,71,0.00,,,0.00,VWS V14.01,2013-07-20 01:34:00,
2013-07-19 21:39:00,83.5,73.5,29.79,NE,56,0.0,7.0,72,0.00,,,0.00,VWS V14.01,2013-07-20 01:39:00,
2013-07-19 21:44:00,83.4,73.4,29.79,SW,229,0.0,7.0,72,0.00,,,0.00,VWS V14.01,2013-07-20 01:44:00,
2013-07-19 21:49:00,83.2,73.2,29.79,SSW,198,1.0,7.0,72,0.00,,,0.00,VWS V14.01,2013-07-20 01:49:00,
2013-07-19 21:54:00,83.1,73.6,29.80,SW,215,1.0,7.0,73,0.00,,,0.00,VWS V14.01,2013-07-20 01:54:00,
2013-07-19 21:59:00,82.9,73.4,29.80,South,170,0.0,7.0,73,0.00,,,0.00,VWS V14.01,2013-07-20 01:59:00,
2013-07-19 22:00:00,83.0,73.5,29.79,SSW,198,3.0,7.0,73,0.00,,,0.00,VWS V14.01,2013-07-20 02:00:00,
2013-07-19 22:04:00,82.8,73.3,29.80,SSW,200,0.0,7.0,73,0.00,,,0.00,VWS V14.01,2013-07-20 02:04:00,
2013-07-19 22:09:00,82.7,73.6,29.80,SSW,207,0.0,7.0,74,0.00,,,0.00,VWS V14.01,2013-07-20 02:09:00,
2013-07-19 22:14:00,82.5,73.4,29.80,South,174,1.0,7.0,74,0.00,,,0.00,VWS V14.01,2013-07-20 02:14:00,
2013-07-19 22:19:00,82.4,73.7,29.80,South,181,6.0,7.0,75,0.00,,,0.00,VWS V14.01,2013-07-20 02:19:00,
2013-07-19 22:24:00,82.3,73.6,29.80,SSW,203,4.0,7.0,75,0.00,,,0.00,VWS V14.01,2013-07-20 02:24:00,
2013-07-19 22:29:00,82.2,73.5,29.80,SW,230,0.0,6.0,75,0.00,,,0.00,VWS V14.01,2013-07-20 02:29:00,
2013-07-19 22:30:00,82.2,73.5,29.80,South,179,4.0,7.0,75,0.00,,,0.00,VWS V14.01,2013-07-20 02:30:00,
2013-07-19 22:34:00,82.0,73.7,29.80,SW,218,0.0,6.0,76,0.00,,,0.00,VWS V14.01,2013-07-20 02:34:00,
2013-07-19 22:39:00,81.8,73.5,29.80,SSW,203,1.0,6.0,76,0.00,,,0.00,VWS V14.01,2013-07-20 02:39:00,
2013-07-19 22:44:00,81.7,73.8,29.80,SSE,165,4.0,6.0,77,0.00,,,0.00,VWS V14.01,2013-07-20 02:44:00,
2013-07-19 22:49:00,81.6,73.7,29.80,SSW,212,3.0,7.0,77,0.00,,,0.00,VWS V14.01,2013-07-20 02:49:00,
2013-07-19 22:54:00,81.5,73.6,29.80,NW,316,0.0,7.0,77,0.00,,,0.00,VWS V14.01,2013-07-20 02:54:00,
2013-07-19 22:59:00,81.4,73.9,29.80,SE,129,3.0,3.0,78,0.00,,,0.00,VWS V14.01,2013-07-20 02:59:00,
2013-07-19 23:00:00,81.5,74.0,29.80,SW,221,0.0,7.0,78,0.00,,,0.00,VWS V14.01,2013-07-20 03:00:00,
2013-07-19 23:04:00,81.3,73.8,29.80,SW,219,1.0,6.0,78,0.00,,,0.00,VWS V14.01,2013-07-20 03:04:00,
2013-07-19 23:09:00,81.2,73.7,29.80,NW,325,1.0,6.0,78,0.00,,,0.00,VWS V14.01,2013-07-20 03:09:00,
2013-07-19 23:14:00,81.1,73.6,29.80,South,176,0.0,12.0,78,0.00,,,0.00,VWS V14.01,2013-07-20 03:14:00,
2013-07-19 23:19:00,81.0,73.5,29.80,SSW,198,0.0,12.0,78,0.00,,,0.00,VWS V14.01,2013-07-20 03:19:00,
2013-07-19 23:24:00,80.8,73.7,29.80,South,186,4.0,12.0,79,0.00,,,0.00,VWS V14.01,2013-07-20 03:24:00,
2013-07-19 23:28:00,80.7,73.6,29.80,WNW,284,1.0,4.0,79,0.00,,,0.00,VWS V14.01,2013-07-20 03:28:00,
2013-07-19 23:30:00,80.7,73.6,29.80,SE,124,0.0,12.0,79,0.00,,,0.00,VWS V14.01,2013-07-20 03:30:00,
2013-07-19 23:33:00,80.6,73.5,29.81,WSW,238,3.0,8.0,79,0.00,,,0.00,VWS V14.01,2013-07-20 03:33:00,
2013-07-19 23:38:00,80.5,73.4,29.81,SSW,212,2.0,8.0,79,0.00,,,0.00,VWS V14.01,2013-07-20 03:38:00,
2013-07-19 23:43:00,80.5,73.4,29.81,SE,135,1.0,8.0,79,0.00,,,0.00,VWS V14.01,2013-07-20 03:43:00,
2013-07-19 23:48:00,80.3,73.2,29.81,West,271,0.0,8.0,79,0.00,,,0.00,VWS V14.01,2013-07-20 03:48:00,
2013-07-19 23:53:00,80.2,73.5,29.81,South,171,2.0,8.0,80,0.00,,,0.00,VWS V14.01,2013-07-20 03:53:00,
2013-07-19 23:58:00,80.1,73.4,29.81,South,172,7.0,7.0,80,0.00,,,0.00,VWS V14.01,2013-07-20 03:58:00,